When you browse on this site, cookies collect data to enhance your experience and personalize the content and advertising you see.
Visit our Privacy Policy to learn more. By continuing to use the site, you agree to this use of cookies and data.
  • In France
  • List of Countries
  • For 7 days
  • Water Temperature
  • Weather Map
  • Weather Widgets
  • user-avatar
    Login

    Hourly Weather Mendoza

    Today, 24 February, Monday

    Time Temperature Precipitation Wind Pressure Humidity
    00:00 +23°C° 0 mm 2 mps 695 mmHg 49%
    01:00 +21°C° 0 mm 2 mps 695 mmHg 50%
    02:00 +22°C° 0 mm 1 mps 694 mmHg 52%
    03:00 +21°C° 0 mm 1 mps 694 mmHg 53%
    04:00 +20°C° 0 mm 1 mps 694 mmHg 55%
    05:00 +21°C° 0 mm 1 mps 694 mmHg 51%
    06:00 +23°C° 0 mm 2 mps 695 mmHg 47%
    07:00 +24°C° 0 mm 2 mps 695 mmHg 43%
    08:00 +25°C° 0 mm 3 mps 695 mmHg 40%
    09:00 +27°C° 0 mm 4 mps 695 mmHg 37%
    10:00 +29°C° 0 mm 4 mps 695 mmHg 35%
    11:00 +30°C° 0 mm 4 mps 695 mmHg 32%
    12:00 +32°C° 0 mm 4 mps 694 mmHg 29%
    13:00 +33°C° 0 mm 4 mps 694 mmHg 26%
    14:00 +33°C° 0 mm 4 mps 694 mmHg 24%
    15:00 +33°C° 0 mm 4 mps 693 mmHg 23%
    16:00 +33°C° 0 mm 4 mps 693 mmHg 22%
    17:00 +31°C° 0 mm 3 mps 694 mmHg 25%
    18:00 +29°C° 0 mm 3 mps 695 mmHg 29%
    19:00 +28°C° 0 mm 3 mps 696 mmHg 32%
    20:00 +26°C° 0.3 mm 3 mps 696 mmHg 40%
    21:00 +23°C° 0.3 mm 4 mps 697 mmHg 47%
    22:00 +21°C° 0.3 mm 5 mps 697 mmHg 55%
    23:00 +20°C° 0 mm 4 mps 697 mmHg 56%

    Tomorrow, 25 February, Tuesday

    Time Temperature Precipitation Wind Pressure Humidity
    00:00 +20°C° 0 mm 3 mps 697 mmHg 57%
    01:00 +20°C° 0 mm 1 mps 697 mmHg 58%
    02:00 +19°C° 0 mm 2 mps 697 mmHg 59%
    03:00 +18°C° 0 mm 2 mps 697 mmHg 59%
    04:00 +18°C° 0 mm 2 mps 697 mmHg 60%
    05:00 +19°C° 0 mm 1 mps 698 mmHg 57%
    06:00 +20°C° 0 mm 1 mps 698 mmHg 54%
    07:00 +21°C° 0 mm 1 mps 699 mmHg 51%
    08:00 +22°C° 0 mm 1 mps 699 mmHg 46%
    09:00 +24°C° 0 mm 2 mps 699 mmHg 41%
    10:00 +26°C° 0 mm 3 mps 699 mmHg 35%
    11:00 +27°C° 0 mm 3 mps 699 mmHg 33%
    12:00 +28°C° 0 mm 3 mps 699 mmHg 31%
    13:00 +29°C° 0 mm 3 mps 698 mmHg 28%
    14:00 +29°C° 0 mm 3 mps 698 mmHg 27%
    15:00 +29°C° 0 mm 3 mps 698 mmHg 26%
    16:00 +30°C° 0 mm 3 mps 698 mmHg 25%
    17:00 +28°C° 0 mm 3 mps 698 mmHg 26%
    18:00 +27°C° 0 mm 3 mps 699 mmHg 28%
    19:00 +26°C° 0 mm 3 mps 699 mmHg 29%
    20:00 +25°C° 0 mm 3 mps 699 mmHg 31%
    21:00 +25°C° 0 mm 2 mps 700 mmHg 32%
    22:00 +24°C° 0 mm 2 mps 701 mmHg 34%
    23:00 +23°C° 0 mm 2 mps 700 mmHg 35%

    Day after tomorrow, 26 February, Wednesday

    Time Temperature Precipitation Wind Pressure Humidity
    00:00 +23°C° 0 mm 1 mps 700 mmHg 36%
    01:00 +22°C° 0 mm 1 mps 699 mmHg 37%
    02:00 +22°C° 0 mm 1 mps 699 mmHg 37%
    03:00 +20°C° 0 mm 2 mps 699 mmHg 37%
    04:00 +20°C° 0 mm 2 mps 699 mmHg 37%
    05:00 +20°C° 0 mm 2 mps 699 mmHg 34%
    06:00 +21°C° 0 mm 2 mps 700 mmHg 31%
    07:00 +22°C° 0 mm 3 mps 700 mmHg 29%
    08:00 +25°C° 0 mm 2 mps 700 mmHg 27%
    09:00 +26°C° 0 mm 2 mps 700 mmHg 24%
    10:00 +27°C° 0 mm 2 mps 700 mmHg 22%
    11:00 +28°C° 0 mm 2 mps 699 mmHg 21%
    12:00 +30°C° 0 mm 3 mps 699 mmHg 21%
    13:00 +31°C° 0 mm 3 mps 698 mmHg 20%
    14:00 +31°C° 0 mm 3 mps 698 mmHg 20%
    15:00 +33°C° 0 mm 3 mps 698 mmHg 20%
    16:00 +33°C° 0 mm 3 mps 697 mmHg 20%
    17:00 +31°C° 0 mm 2 mps 697 mmHg 22%
    18:00 +29°C° 0 mm 2 mps 697 mmHg 25%
    19:00 +28°C° 0 mm 2 mps 697 mmHg 27%
    20:00 +27°C° 0 mm 2 mps 698 mmHg 29%
    21:00 +27°C° 0 mm 2 mps 698 mmHg 30%
    22:00 +26°C° 0 mm 2 mps 698 mmHg 32%
    23:00 +25°C° 0 mm 2 mps 698 mmHg 33%

    27 February, Thursday

    Time Temperature Precipitation Wind Pressure Humidity
    00:00 +24°C° 0 mm 2 mps 698 mmHg 35%
    01:00 +24°C° 0 mm 1 mps 697 mmHg 36%
    02:00 +23°C° 0 mm 2 mps 697 mmHg 37%
    03:00 +23°C° 0 mm 2 mps 697 mmHg 37%
    04:00 +23°C° 0 mm 2 mps 697 mmHg 38%
    05:00 +24°C° 0 mm 2 mps 697 mmHg 36%
    06:00 +25°C° 0 mm 2 mps 697 mmHg 33%
    07:00 +26°C° 0 mm 1 mps 698 mmHg 31%
    08:00 +27°C° 0 mm 2 mps 698 mmHg 29%
    09:00 +29°C° 0 mm 2 mps 698 mmHg 27%
    10:00 +31°C° 0 mm 3 mps 698 mmHg 25%
    11:00 +33°C° 0 mm 3 mps 697 mmHg 23%
    12:00 +34°C° 0 mm 3 mps 697 mmHg 22%
    13:00 +35°C° 0 mm 3 mps 697 mmHg 21%
    14:00 +35°C° 0 mm 3 mps 696 mmHg 20%
    15:00 +35°C° 0 mm 3 mps 696 mmHg 20%
    16:00 +36°C° 0 mm 3 mps 695 mmHg 19%
    17:00 +34°C° 0 mm 3 mps 696 mmHg 21%
    18:00 +33°C° 0 mm 4 mps 696 mmHg 23%
    19:00 +32°C° 0 mm 4 mps 697 mmHg 24%
    20:00 +30°C° 0 mm 4 mps 697 mmHg 26%
    21:00 +29°C° 0 mm 4 mps 697 mmHg 28%
    22:00 +28°C° 0 mm 4 mps 697 mmHg 30%
    23:00 +27°C° 0 mm 3 mps 697 mmHg 32%

    28 February, Friday

    Time Temperature Precipitation Wind Pressure Humidity
    00:00 +26°C° 0 mm 2 mps 696 mmHg 34%
    01:00 +26°C° 0 mm 1 mps 696 mmHg 36%
    02:00 +25°C° 0 mm 1 mps 696 mmHg 38%
    03:00 +24°C° 0 mm 1 mps 696 mmHg 40%
    04:00 +24°C° 0 mm 1 mps 696 mmHg 42%
    05:00 +25°C° 0 mm 2 mps 697 mmHg 38%
    06:00 +27°C° 0 mm 2 mps 698 mmHg 34%
    07:00 +28°C° 0 mm 3 mps 698 mmHg 31%
    08:00 +29°C° 0 mm 4 mps 698 mmHg 28%
    09:00 +32°C° 0 mm 4 mps 699 mmHg 25%
    10:00 +33°C° 0 mm 5 mps 699 mmHg 23%
    11:00 +34°C° 0 mm 4 mps 698 mmHg 22%
    12:00 +35°C° 0 mm 4 mps 698 mmHg 21%
    13:00 +36°C° 0 mm 3 mps 698 mmHg 20%
    14:00 +36°C° 0 mm 4 mps 698 mmHg 19%
    15:00 +36°C° 0 mm 4 mps 698 mmHg 18%
    16:00 +36°C° 0 mm 4 mps 698 mmHg 17%
    17:00 +35°C° 0 mm 3 mps 698 mmHg 19%
    18:00 +34°C° 0 mm 3 mps 699 mmHg 21%
    19:00 +31°C° 0 mm 2 mps 699 mmHg 23%
    20:00 +31°C° 0.1 mm 3 mps 700 mmHg 25%
    21:00 +30°C° 0.1 mm 3 mps 700 mmHg 27%
    22:00 +29°C° 0.1 mm 4 mps 701 mmHg 30%
    23:00 +28°C° 0.4 mm 4 mps 701 mmHg 32%

    29 February, Saturday

    Time Temperature Precipitation Wind Pressure Humidity
    00:00 +27°C° 0.4 mm 5 mps 701 mmHg 35%
    01:00 +26°C° 0.4 mm 5 mps 701 mmHg 38%
    02:00 +26°C° 0 mm 5 mps 702 mmHg 38%
    03:00 +25°C° 0 mm 5 mps 702 mmHg 37%
    04:00 +23°C° 0 mm 4 mps 702 mmHg 37%
    05:00 +25°C° 0 mm 4 mps 702 mmHg 35%
    06:00 +25°C° 0 mm 4 mps 703 mmHg 34%
    07:00 +26°C° 0 mm 3 mps 703 mmHg 32%
    08:00 +27°C° 0 mm 4 mps 703 mmHg 30%
    09:00 +28°C° 0 mm 4 mps 703 mmHg 28%
    10:00 +30°C° 0 mm 4 mps 703 mmHg 26%
    11:00 +32°C° 0 mm 4 mps 703 mmHg 25%
    12:00 +31°C° 0 mm 3 mps 702 mmHg 24%
    13:00 +33°C° 0 mm 3 mps 702 mmHg 23%
    14:00 +34°C° 0 mm 3 mps 701 mmHg 23%
    15:00 +34°C° 0 mm 2 mps 701 mmHg 23%
    16:00 +34°C° 0 mm 2 mps 700 mmHg 23%
    17:00 +32°C° 0 mm 2 mps 700 mmHg 25%
    18:00 +31°C° 0 mm 2 mps 700 mmHg 27%
    19:00 +30°C° 0 mm 2 mps 701 mmHg 29%
    20:00 +29°C° 0 mm 2 mps 701 mmHg 30%
    21:00 +29°C° 0 mm 1 mps 701 mmHg 31%
    22:00 +28°C° 0 mm 1 mps 701 mmHg 32%
    23:00 +27°C° 0 mm 1 mps 701 mmHg 32%
    Show more